Date String (YYYY-MM-DD hh:mm:ss) UTC,Instrument flags,Ambient pressure (hPa),Sample flow (lpm),Bypass flow (lpm),Sample temperature (°C),Ambient temperature (°C),ASC tube jacket temperature (°C),LED temperature (°C),Box temperature (°C),Sample RH (%),Span deviation,Mass concentration (μg/m³),Mass concentration (μg/m³),Mass concentration (μg/m³)
DateTimeUTC,F1_M11,P_M11,Q1_M11,Q2_M11,T1_M11,T2_M11,T3_M11,T4_M11,T5_M11,U1_M11,ZSPAN_M11,X0_M11,X2_M11,X1_M11
2022-11-13 11:00:00,,0820.6,4.98,0.00,22.5,21.3,00.0,31.3,24.3,08.6,0000.9,0019.49,0008.91,0007.93
2022-11-13 11:01:00,,0820.6,5.01,0.00,22.5,21.2,00.0,31.3,24.3,08.6,0000.9,0019.12,0008.92,0007.95
2022-11-13 11:02:00,,0820.6,4.99,0.00,22.5,21.1,00.0,31.3,24.3,08.6,0000.8,0018.85,0008.91,0007.96
2022-11-13 11:03:00,,0820.6,5.01,0.00,22.4,21.1,00.0,31.3,24.2,08.6,0001.1,0018.13,0008.90,0007.96
2022-11-13 11:04:00,,0820.6,5.00,0.00,22.4,21.0,00.0,31.3,24.2,08.6,0000.9,0017.28,0008.92,0007.97
2022-11-13 11:05:00,,0820.6,5.00,0.00,22.4,21.0,00.0,31.3,24.2,08.8,0001.1,0016.07,0008.98,0008.03
2022-11-13 11:06:00,,0820.6,5.00,0.00,22.4,21.0,00.0,31.3,24.2,08.8,0000.3,0015.62,0009.09,0008.13
2022-11-13 11:07:00,,0820.6,5.00,0.00,22.4,20.9,00.0,31.3,24.2,08.7,0001.3,0016.00,0009.13,0008.18
2022-11-13 11:08:00,,0820.6,4.99,0.00,22.4,20.9,00.0,31.3,24.2,08.6,0001.8,0016.17,0009.08,0008.17
2022-11-13 11:09:00,,0820.7,5.00,0.00,22.3,20.8,00.0,31.3,24.1,08.5,0000.9,0016.29,0009.05,0008.16
2022-11-13 11:10:00,,0820.7,5.02,0.00,22.4,21.3,00.0,31.2,24.3,08.7,0000.5,0016.58,0009.07,0008.16
2022-11-13 11:11:00,,0820.6,5.00,0.00,22.5,22.2,00.0,31.2,24.5,08.8,0000.3,0017.74,0009.15,0008.21
2022-11-13 11:12:00,,0820.6,4.99,0.00,22.5,22.3,00.0,31.2,24.6,08.9,0000.6,0017.90,0009.27,0008.30
2022-11-13 11:13:00,,0820.6,5.00,0.00,22.6,22.0,00.0,31.3,24.5,08.8,0000.8,0017.51,0009.41,0008.40
2022-11-13 11:14:00,,0820.6,5.01,0.00,22.6,21.8,00.0,31.3,24.5,08.7,0000.6,0017.50,0009.51,0008.49
2022-11-13 11:15:00,,0820.6,5.00,0.00,22.6,21.6,00.0,31.3,24.4,08.6,0001.5,0017.45,0009.50,0008.50
2022-11-13 11:16:00,,0820.6,5.00,0.00,22.6,21.5,00.0,31.3,24.4,08.6,0001.6,0017.37,0009.46,0008.48
2022-11-13 11:17:00,,0820.6,4.99,0.00,22.5,21.4,00.0,31.3,24.4,08.8,0002.7,0017.32,0009.42,0008.46
2022-11-13 11:18:00,,0820.6,5.00,0.00,22.5,21.3,00.0,31.3,24.3,08.9,0002.4,0016.98,0009.46,0008.50
2022-11-13 11:19:00,,0820.6,5.01,0.00,22.5,21.2,00.0,31.3,24.3,08.9,0001.7,0016.92,0009.60,0008.59
2022-11-13 11:20:00,,0820.6,5.00,0.00,22.5,21.1,00.0,31.3,24.3,08.7,0002.7,0017.02,0009.67,0008.66
2022-11-13 11:21:00,,0820.6,4.99,0.00,22.5,21.1,00.0,31.3,24.3,08.5,0003.6,0016.74,0009.61,0008.62
2022-11-13 11:22:00,,0820.6,4.99,0.00,22.5,21.0,00.0,31.3,24.3,08.6,0004.2,0015.46,0009.46,0008.53
2022-11-13 11:23:00,,0820.6,5.02,0.00,22.4,20.9,00.0,31.3,24.2,08.7,0004.1,0015.70,0009.32,0008.45
2022-11-13 11:24:00,,0820.6,4.99,0.00,22.4,20.9,00.0,31.3,24.2,08.7,0003.5,0016.04,0009.18,0008.36
2022-11-13 11:25:00,,0820.6,4.99,0.00,22.4,20.9,00.0,31.3,24.2,08.6,0003.4,0016.20,0009.08,0008.27
2022-11-13 11:26:00,,0820.6,5.00,0.00,22.4,20.9,00.0,31.3,24.2,08.5,0003.0,0016.46,0009.03,0008.21
2022-11-13 11:27:00,,0820.6,5.01,0.00,22.4,20.8,00.0,31.3,24.2,08.4,0003.1,0016.83,0008.92,0008.11
2022-11-13 11:28:00,,0820.6,5.01,0.00,22.4,21.3,00.0,31.2,24.3,08.4,0001.7,0017.72,0008.75,0007.97
2022-11-13 11:29:00,,0820.6,5.00,0.00,22.5,22.2,00.0,31.2,24.5,08.4,0001.9,0017.95,0008.58,0007.80
2022-11-13 11:30:00,,0820.7,5.00,0.00,22.6,22.3,00.0,31.2,24.6,08.4,0002.4,0017.15,0008.39,0007.65
2022-11-13 11:31:00,,0820.7,4.99,0.00,22.6,22.0,00.0,31.3,24.6,08.5,0002.0,0017.02,0008.30,0007.59
2022-11-13 11:32:00,,0820.6,4.99,0.00,22.6,21.8,00.0,31.3,24.5,08.5,0001.9,0017.02,0008.31,0007.62
2022-11-13 11:33:00,,0820.6,5.00,0.00,22.6,21.6,00.0,31.3,24.4,08.6,0001.6,0017.12,0008.36,0007.66
2022-11-13 11:34:00,,0820.6,5.01,0.00,22.5,21.4,00.0,31.3,24.4,08.6,0001.7,0016.63,0008.40,0007.69
2022-11-13 11:35:00,,0820.6,4.99,0.00,22.5,21.2,00.0,31.3,24.3,08.7,0002.9,0016.39,0008.45,0007.69
2022-11-13 11:36:00,,0820.6,5.00,0.00,22.5,21.1,00.0,31.3,24.3,08.7,0002.4,0016.37,0008.52,0007.72
2022-11-13 11:37:00,,0820.6,5.01,0.00,22.5,21.0,00.0,31.3,24.3,08.7,0001.8,0016.12,0008.57,0007.80
2022-11-13 11:38:00,,0820.6,4.98,0.00,22.4,21.0,00.0,31.3,24.2,08.6,0001.5,0015.56,0008.60,0007.87
2022-11-13 11:39:00,,0820.6,5.00,0.00,22.4,20.9,00.0,31.3,24.2,08.6,0001.6,0014.53,0008.65,0007.92
2022-11-13 11:40:00,,0820.6,5.00,0.00,22.4,20.8,00.0,31.3,24.2,08.7,0001.4,0014.10,0008.73,0007.99
2022-11-13 11:41:00,,0820.6,5.01,0.00,22.4,20.9,00.0,31.3,24.2,08.7,0000.9,0014.41,0008.81,0008.07
2022-11-13 11:42:00,,0820.6,4.98,0.00,22.4,20.8,00.0,31.3,24.2,08.7,0000.3,0014.62,0008.86,0008.12
2022-11-13 11:43:00,,0820.6,5.01,0.00,22.3,20.8,00.0,31.3,24.1,08.8,-000.1,0014.74,0008.95,0008.16
2022-11-13 11:44:00,,0820.6,5.01,0.00,22.3,20.8,00.0,31.3,24.1,08.7,-000.8,0015.11,0009.02,0008.19
2022-11-13 11:45:00,,0820.6,4.99,0.00,22.3,21.2,00.0,31.2,24.2,08.8,-001.0,0015.69,0009.04,0008.20
2022-11-13 11:46:00,,0820.6,5.00,0.00,22.4,22.2,00.0,31.2,24.4,08.9,-001.1,0015.57,0009.11,0008.25
2022-11-13 11:47:00,,0820.7,5.00,0.00,22.5,22.5,00.0,31.2,24.5,08.8,-000.4,0015.45,0009.16,0008.29
2022-11-13 11:48:00,,0820.7,5.00,0.00,22.6,22.1,00.0,31.3,24.5,08.7,-000.3,0015.50,0009.21,0008.30
2022-11-13 11:49:00,,0820.6,4.99,0.00,22.5,21.8,00.0,31.3,24.5,08.7,0000.4,0015.91,0009.35,0008.35
2022-11-13 11:50:00,,0820.6,5.00,0.00,22.5,21.6,00.0,31.3,24.4,08.8,0001.1,0016.18,0009.47,0008.44
2022-11-13 11:51:00,,0820.6,5.00,0.00,22.5,21.5,00.0,31.3,24.4,08.8,0001.3,0016.49,0009.52,0008.48
2022-11-13 11:52:00,,0820.6,5.02,0.00,22.5,21.4,00.0,31.3,24.4,08.8,0001.4,0016.64,0009.60,0008.50
2022-11-13 11:53:00,,0820.6,5.00,0.00,22.5,21.3,00.0,31.3,24.3,08.8,0001.0,0016.45,0009.66,0008.54
2022-11-13 11:54:00,,0820.6,4.99,0.00,22.5,21.3,00.0,31.4,24.3,08.8,0001.4,0016.75,0009.68,0008.57
2022-11-13 11:55:00,,0820.6,5.00,0.00,22.5,21.2,00.0,31.4,24.3,08.9,0001.8,0016.98,0009.70,0008.61
2022-11-13 11:56:00,,0820.6,5.01,0.00,22.5,21.1,00.0,31.3,24.3,08.9,0001.7,0016.88,0009.74,0008.66
2022-11-13 11:57:00,,0820.6,5.01,0.00,22.5,21.0,00.0,31.3,24.3,09.0,0001.3,0017.01,0009.74,0008.68
2022-11-13 11:58:00,,0820.6,4.99,0.00,22.4,20.9,00.0,31.3,24.2,08.9,0000.6,0017.37,0009.71,0008.67
2022-11-13 11:59:00,,0820.6,5.00,0.00,22.4,20.9,00.0,31.3,24.2,08.9,0001.1,0018.33,0009.78,0008.70
